Location: Unspecified
(0.0000°N, 0.0000°E)
Time: 06:16:21
(UTC+00:00)

Explorer 11/Cluster Stage 4 - Visible Passes

Search period start: 20 October 2021 00:00
Search period end: 30 October 2021 00:00
Orbit: 467 x 1256 km, 28.8° (Epoch: 19 October)

Date Brightness Start Highest point End Pass type
(mag) Time Alt. Az. Time Alt. Az. Time Alt. Az.
20 Oct 7.9 04:26:06 17° NNW 04:30:27 36° NNE 04:35:28 10° E visible
20 Oct 8.4 18:59:25 10° W 19:04:53 31° NNW 19:09:41 16° NNE visible
21 Oct 7.6 04:15:49 25° NNW 04:19:19 44° NNE 04:24:43 10° E visible
21 Oct 8.6 18:48:47 10° WNW 18:53:44 25° NNW 18:59:18 11° NNE visible
22 Oct 7.4 04:05:33 36° NNW 04:08:09 55° NNE 04:13:52 10° ESE visible
22 Oct 8.8 18:38:16 10° WNW 18:42:38 21° NNW 18:47:39 10° NNE visible
23 Oct 7.2 03:55:15 51° NNW 03:56:55 66° NNE 04:02:57 10° ESE visible
23 Oct 8.9 18:27:56 10° WNW 18:31:35 17° NNW 18:35:40 10° NNE visible
24 Oct 7.0 03:44:56 71° NNW 03:45:39 79° NNE 03:51:57 10° ESE visible
24 Oct 9.1 18:17:54 10° NW 18:20:34 13° NNW 18:23:27 10° N visible
25 Oct 7.1 03:34:33 85° SE 03:34:33 85° SE 03:40:54 10° ESE visible
25 Oct 8.3 05:17:51 10° W 05:23:12 24° SSW 05:27:47 10° SSE visible
25 Oct 9.1 18:08:52 10° NNW 18:09:34 10° NNW 18:10:18 10° N visible
26 Oct 7.4 03:24:08 64° SSE 03:24:08 64° SSE 03:29:46 10° SE visible
26 Oct 8.5 05:06:53 10° WSW 05:11:58 21° SSW 05:16:26 10° SSE visible
27 Oct 7.9 03:13:39 49° SSE 03:13:39 49° SSE 03:18:34 10° SE visible
27 Oct 8.7 04:55:59 10° WSW 05:00:45 19° SSW 05:05:01 10° SSE visible
28 Oct 8.3 03:03:06 37° SSE 03:03:06 37° SSE 03:07:19 10° SE visible
28 Oct 8.9 04:45:12 10° WSW 04:49:33 16° SSW 04:53:32 10° S visible
29 Oct 8.7 02:52:29 30° SSE 02:52:29 30° SSE 02:56:01 10° SE visible
29 Oct 9.1 04:34:35 10° WSW 04:38:21 15° SSW 04:41:58 10° S visible
